| time (UTC) | temp F | wind direction | speed knots | gust knots | rain 1hr in | rain 24hr in | rain mn in | humidity % | barometer mb |
| 20260510104528 | 65 | 63 | 0.0 | 1.7 | 0.01 | 2.95 | 0.01 | 97 | 1014.1 |
| 20260510104005 | 65 | 63 | 0.0 | 1.7 | 0.01 | 2.95 | 0.01 | 97 | 1014.0 |
| 20260510103505 | 65 | 63 | 0.0 | 1.7 | 0.01 | 2.95 | 0.01 | 97 | 1014.0 |
| 20260510103019 | 65 | 63 | 0.0 | 1.7 | 0.01 | 2.95 | 0.01 | 97 | 1013.9 |
| 20260510102512 | 65 | 62 | 0.0 | 1.7 | 0.00 | 2.94 | 0.00 | 97 | 1014.0 |
| 20260510102010 | 65 | 62 | 0.0 | 1.7 | 0.00 | 2.94 | 0.00 | 97 | 1014.0 |
| 20260510101518 | 65 | 63 | 0.0 | 2.6 | 0.00 | 2.94 | 0.00 | 97 | 1013.9 |
| 20260510101008 | 66 | 63 | 0.9 | 2.6 | 0.00 | 2.94 | 0.00 | 97 | 1013.7 |
| 20260510100508 | 65 | 63 | 0.9 | 2.6 | 0.00 | 2.94 | 0.00 | 97 | 1013.7 |
| 20260510100025 | 65 | 63 | 0.0 | 2.6 | 0.00 | 2.94 | 0.00 | 97 | 1013.7 |
| 20260510095507 | 65 | 63 | 0.0 | 2.6 | 0.00 | 2.94 | 0.00 | 97 | 1013.7 |
| 20260510095010 | 66 | 63 | 0.9 | 2.6 | 0.00 | 2.94 | 0.00 | 97 | 1013.6 |
| 20260510094524 | 65 | 63 | 0.9 | 2.6 | 0.00 | 2.94 | 0.00 | 97 | 1013.6 |
| 20260510094008 | 65 | 63 | 0.0 | 1.7 | 0.00 | 2.94 | 0.00 | 97 | 1013.5 |
| 20260510093511 | 65 | 63 | 0.0 | 0.9 | 0.00 | 2.94 | 0.00 | 97 | 1013.5 |
| 20260510093052 | 65 | 63 | 0.0 | 1.7 | 0.00 | 2.94 | 0.00 | 97 | 1013.4 |
| 20260510092507 | 65 | 63 | 0.0 | 1.7 | 0.00 | 2.94 | 0.00 | 97 | 1013.3 |
| 20260510092009 | 65 | 63 | 0.0 | 1.7 | 0.00 | 2.94 | 0.00 | 97 | 1013.4 |
| 20260510091516 | 65 | 63 | 0.0 | 2.6 | 0.00 | 2.94 | 0.00 | 97 | 1013.3 |
| 20260510091007 | 65 | 63 | 0.9 | 2.6 | 0.00 | 2.94 | 0.00 | 97 | 1013.5 |
| 20260510090508 | 66 | 63 | 0.9 | 1.7 | 0.00 | 2.94 | 0.00 | 97 | 1013.6 |
| 20260510090037 | 65 | 63 | 0.0 | 1.7 | 0.00 | 2.94 | 0.00 | 97 | 1013.6 |
| 20260510085508 | 66 | 63 | 0.0 | 1.7 | 0.00 | 2.94 | 0.00 | 97 | 1013.6 |
| 20260510085011 | 66 | 63 | 0.0 | 1.7 | 0.00 | 2.94 | 0.00 | 97 | 1013.6 |
| 20260510084529 | 66 | 63 | 0.0 | 2.6 | 0.00 | 2.94 | 0.00 | 97 | 1013.5 |
| 20260510084009 | 66 | 63 | 0.9 | 2.6 | 0.00 | 2.94 | 0.00 | 97 | 1013.5 |
| 20260510083507 | 66 | 360 | 0.9 | 2.6 | 0.00 | 2.94 | 0.00 | 97 | 1013.5 |
| 20260510083029 | 66 | 360 | 0.0 | 0.9 | 0.00 | 2.94 | 0.00 | 97 | 1013.6 |
| 20260510082511 | 66 | 360 | 0.0 | 1.7 | 0.00 | 2.94 | 0.00 | 97 | 1013.6 |
| 20260510082015 | 66 | 360 | 0.0 | 1.7 | 0.00 | 2.94 | 0.00 | 97 | 1013.5 |
| 20260510081528 | 66 | 360 | 0.0 | 1.7 | 0.00 | 2.94 | 0.00 | 97 | 1013.4 |
| 20260510081007 | 66 | 360 | 0.0 | 2.6 | 0.00 | 2.94 | 0.00 | 97 | 1013.4 |
| 20260510080507 | 66 | 360 | 0.9 | 2.6 | 0.00 | 2.94 | 0.00 | 97 | 1013.4 |
| 20260510080020 | 66 | 360 | 0.0 | 0.9 | 0.00 | 2.94 | 0.00 | 97 | 1013.4 |
| 20260510075507 | 66 | 360 | 0.0 | 0.9 | 0.00 | 2.94 | 0.00 | 97 | 1013.4 |
| 20260510075016 | 66 | 360 | 0.0 | 1.7 | 0.00 | 2.94 | 0.00 | 97 | 1013.4 |
| 20260510074524 | 67 | 360 | 0.0 | 1.7 | 0.00 | 2.94 | 0.00 | 97 | 1013.4 |
| 20260510074008 | 67 | 360 | 0.0 | 2.6 | 0.00 | 2.94 | 0.00 | 97 | 1013.5 |
| 20260510073509 | 67 | 360 | 0.0 | 2.6 | 0.00 | 2.95 | 0.00 | 97 | 1013.5 |
| 20260510073027 | 67 | 360 | 0.0 | 1.7 | 0.00 | 3.01 | 0.00 | 97 | 1013.4 |
| 20260510072507 | 67 | 360 | 0.0 | 1.7 | 0.00 | 3.17 | 0.00 | 97 | 1013.4 |
| 20260510072014 | 67 | 10 | 0.9 | 1.7 | 0.00 | 3.45 | 0.00 | 97 | 1013.4 |
| 20260510071529 | 67 | 10 | 0.0 | 1.7 | 0.00 | 3.50 | 0.00 | 97 | 1013.3 |
| 20260510071011 | 67 | 10 | 0.0 | 1.7 | 0.00 | 3.50 | 0.00 | 97 | 1013.3 |
| 20260510070508 | 67 | 10 | 0.9 | 1.7 | 0.00 | 3.52 | 0.00 | 97 | 1013.3 |
| 20260510070032 | 67 | 50 | 0.0 | 2.6 | 0.00 | 3.53 | 0.00 | 97 | 1013.3 |
| 20260510065514 | 67 | 50 | 0.0 | 2.6 | 0.00 | 3.57 | 0.00 | 97 | 1013.3 |
| 20260510065010 | 67 | 17 | 0.0 | 2.6 | 0.00 | 3.57 | 0.00 | 97 | 1013.4 |
| 20260510064522 | 67 | 16 | 0.0 | 1.7 | 0.00 | 3.57 | 0.00 | 97 | 1013.4 |
| 20260510064003 | 67 | 16 | 0.9 | 2.6 | 0.00 | 3.57 | 0.00 | 97 | 1013.3 |
| 20260510063505 | 67 | 16 | 0.0 | 2.6 | 0.00 | 3.57 | 0.00 | 97 | 1013.3 |
| 20260510063004 | 67 | 39 | 0.9 | 2.6 | 0.00 | 3.57 | 0.00 | 97 | 1013.3 |
| 20260510062506 | 67 | 92 | 0.9 | 2.6 | 0.00 | 3.57 | 0.00 | 97 | 1013.3 |
| 20260510062005 | 67 | 81 | 0.9 | 2.6 | 0.00 | 3.57 | 0.00 | 97 | 1013.3 |
| 20260510061508 | 67 | 81 | 0.9 | 2.6 | 0.00 | 3.57 | 0.00 | 97 | 1013.3 |
| 20260510061005 | 67 | 81 | 0.0 | 1.7 | 0.00 | 3.57 | 0.00 | 97 | 1013.4 |
| 20260510060505 | 67 | 81 | 0.0 | 3.5 | 0.00 | 3.57 | 0.00 | 97 | 1013.4 |
| 20260510060013 | 67 | 81 | 0.0 | 3.5 | 0.00 | 3.57 | 0.00 | 97 | 1013.4 |
| 20260510055510 | 67 | 92 | 0.9 | 2.6 | 0.00 | 3.57 | 0.00 | 97 | 1013.3 |
| 20260510055007 | 67 | 73 | 0.9 | 2.6 | 0.00 | 3.57 | 0.00 | 97 | 1013.3 |
| 20260510054522 | 67 | 83 | 0.9 | 4.3 | 0.00 | 3.57 | 0.00 | 97 | 1013.2 |
| 20260510054012 | 67 | 83 | 0.9 | 4.3 | 0.00 | 3.57 | 0.00 | 97 | 1013.5 |
| 20260510053512 | 67 | 60 | 1.7 | 4.3 | 0.00 | 3.58 | 0.00 | 97 | 1013.5 |
| 20260510053025 | 67 | 65 | 0.9 | 3.5 | 0.00 | 3.59 | 0.00 | 97 | 1013.5 |
| 20260510052503 | 67 | 97 | 0.0 | 3.5 | 0.00 | 3.62 | 0.00 | 97 | 1013.5 |
| 20260510052004 | 67 | 91 | 1.7 | 3.5 | 0.00 | 3.63 | 0.00 | 97 | 1013.5 |
| 20260510051505 | 67 | 5 | 0.9 | 2.6 | 0.00 | 3.63 | 0.00 | 97 | 1013.5 |
| 20260510051005 | 67 | 40 | 0.9 | 3.5 | 0.00 | 3.63 | 0.00 | 97 | 1013.5 |
| 20260510050504 | 67 | 51 | 0.9 | 3.5 | 0.00 | 3.63 | 0.00 | 97 | 1013.7 |
| 20260510050012 | 67 | 26 | 0.0 | 1.7 | 0.00 | 3.63 | 0.00 | 97 | 1013.7 |
| 20260510045505 | 67 | 26 | 0.0 | 2.6 | 0.00 | 3.63 | 3.63 | 97 | 1013.8 |
| 20260510045008 | 67 | 333 | 0.0 | 3.5 | 0.00 | 3.63 | 3.63 | 97 | 1013.8 |
| 20260510044519 | 67 | 17 | 0.9 | 3.5 | 0.00 | 3.63 | 3.63 | 97 | 1013.8 |
| 20260510044008 | 67 | 17 | 0.9 | 3.5 | 0.00 | 3.64 | 3.63 | 97 | 1013.7 |
| 20260510043509 | 67 | 41 | 0.9 | 3.5 | 0.00 | 3.64 | 3.63 | 97 | 1013.8 |
| 20260510043021 | 67 | 40 | 0.9 | 3.5 | 0.00 | 3.64 | 3.63 | 97 | 1013.8 |
| 20260510042509 | 67 | 342 | 0.9 | 3.5 | 0.00 | 3.64 | 3.63 | 97 | 1013.9 |
| 20260510042011 | 67 | 15 | 0.9 | 3.5 | 0.00 | 3.65 | 3.63 | 97 | 1013.8 |
| 20260510041523 | 67 | 46 | 1.7 | 3.5 | 0.00 | 3.70 | 3.63 | 97 | 1013.5 |
| 20260510041008 | 67 | 5 | 0.9 | 3.5 | 0.00 | 3.76 | 3.63 | 97 | 1013.5 |
| 20260510040504 | 67 | 5 | 0.9 | 3.5 | 0.00 | 3.78 | 3.63 | 97 | 1013.3 |
| 20260510040010 | 67 | 69 | 0.9 | 3.5 | 0.00 | 3.78 | 3.63 | 97 | 1013.1 |
| 20260510035504 | 67 | 81 | 1.7 | 3.5 | 0.00 | 3.78 | 3.63 | 97 | 1013.2 |
| 20260510035006 | 67 | 81 | 0.9 | 2.6 | 0.00 | 3.79 | 3.63 | 97 | 1013.2 |
| 20260510034512 | 67 | 81 | 0.0 | 2.6 | 0.00 | 3.79 | 3.63 | 97 | 1013.2 |
| 20260510034007 | 67 | 81 | 0.9 | 2.6 | 0.00 | 3.79 | 3.63 | 97 | 1013.1 |
| 20260510033511 | 66 | 83 | 0.9 | 2.6 | 0.00 | 3.79 | 3.63 | 97 | 1013.1 |
| 20260510033020 | 66 | 153 | 0.0 | 2.6 | 0.00 | 3.79 | 3.63 | 97 | 1013.1 |
| 20260510032507 | 66 | 173 | 0.0 | 2.6 | 0.00 | 3.79 | 3.63 | 97 | 1013.0 |
| 20260510032013 | 66 | 157 | 0.0 | 1.7 | 0.00 | 3.79 | 3.63 | 97 | 1013.0 |
| 20260510031525 | 66 | 157 | 0.0 | 3.5 | 0.00 | 3.79 | 3.63 | 97 | 1013.1 |
| 20260510031008 | 66 | 157 | 0.0 | 3.5 | 0.00 | 3.79 | 3.63 | 97 | 1013.0 |
| 20260510030516 | 66 | 137 | 0.9 | 3.5 | 0.00 | 3.79 | 3.63 | 97 | 1012.8 |
| 20260510030035 | 66 | 114 | 0.9 | 2.6 | 0.00 | 3.79 | 3.63 | 97 | 1012.8 |
| 20260510025506 | 66 | 153 | 0.9 | 2.6 | 0.00 | 3.79 | 3.63 | 97 | 1013.0 |
| 20260510025004 | 66 | 107 | 0.9 | 1.7 | 0.00 | 3.79 | 3.63 | 97 | 1013.2 |
| 20260510024511 | 66 | 333 | 0.0 | 1.7 | 0.00 | 3.79 | 3.63 | 97 | 1013.4 |
| 20260510024003 | 66 | 333 | 0.9 | 2.6 | 0.00 | 3.79 | 3.63 | 97 | 1013.6 |
| 20260510023510 | 66 | 333 | 0.0 | 6.1 | 0.00 | 3.79 | 3.63 | 97 | 1013.6 |
| 20260510023016 | 66 | 306 | 0.9 | 6.1 | 0.00 | 3.79 | 3.63 | 97 | 1013.5 |
| 20260510022506 | 66 | 291 | 1.7 | 4.3 | 0.00 | 3.79 | 3.63 | 97 | 1013.4 |
| 20260510022010 | 66 | 169 | 0.9 | 4.3 | 0.00 | 3.79 | 3.63 | 97 | 1013.1 |
| 20260510021528 | 66 | 231 | 1.7 | 4.3 | 0.00 | 3.79 | 3.63 | 97 | 1012.9 |
| 20260510021009 | 66 | 218 | 1.7 | 4.3 | 0.01 | 3.79 | 3.63 | 97 | 1012.8 |
| 20260510020513 | 66 | 194 | 0.9 | 5.2 | 0.01 | 3.79 | 3.63 | 97 | 1012.7 |
| 20260510020030 | 66 | 127 | 1.7 | 5.2 | 0.02 | 3.79 | 3.63 | 97 | 1012.7 |
| 20260510015509 | 66 | 167 | 1.7 | 5.2 | 0.02 | 3.79 | 3.63 | 97 | 1012.9 |
| 20260510015010 | 66 | 178 | 0.9 | 3.5 | 0.02 | 3.79 | 3.63 | 97 | 1013.0 |
| 20260510014508 | 66 | 221 | 0.9 | 3.5 | 0.02 | 3.79 | 3.63 | 97 | 1013.1 |
| 20260510014006 | 66 | 198 | 0.9 | 3.5 | 0.02 | 3.79 | 3.63 | 97 | 1013.3 |
| 20260510013503 | 66 | 132 | 0.9 | 2.6 | 0.02 | 3.79 | 3.63 | 97 | 1013.1 |
| 20260510013014 | 66 | 137 | 0.0 | 3.5 | 0.02 | 3.79 | 3.63 | 97 | 1013.3 |
| 20260510012507 | 66 | 121 | 0.9 | 3.5 | 0.02 | 3.79 | 3.63 | 97 | 1013.3 |
| 20260510012010 | 66 | 117 | 0.9 | 2.6 | 0.02 | 3.79 | 3.63 | 97 | 1013.3 |
| 20260510011525 | 66 | 75 | 0.0 | 3.5 | 0.02 | 3.79 | 3.63 | 97 | 1013.5 |
| 20260510011012 | 66 | 75 | 0.9 | 3.5 | 0.01 | 3.78 | 3.62 | 97 | 1013.5 |
| 20260510010507 | 66 | 326 | 0.9 | 3.5 | 0.01 | 3.78 | 3.62 | 97 | 1013.7 |
| 20260510010022 | 66 | 319 | 0.0 | 2.6 | 0.00 | 3.77 | 3.61 | 97 | 1013.6 |
| 20260510005511 | 66 | 301 | 0.0 | 1.7 | 0.00 | 3.77 | 3.61 | 97 | 1013.7 |
| 20260510005013 | 66 | 301 | 0.0 | 1.7 | 0.00 | 3.77 | 3.61 | 97 | 1013.7 |
| 20260510004528 | 66 | 301 | 0.9 | 1.7 | 0.00 | 3.77 | 3.61 | 97 | 1013.4 |
| 20260510004015 | 66 | 301 | 0.9 | 1.7 | 0.00 | 3.77 | 3.61 | 97 | 1013.4 |
| 20260510003511 | 66 | 301 | 0.0 | 1.7 | 0.00 | 3.77 | 3.61 | 97 | 1013.3 |
| 20260510003021 | 66 | 304 | 0.0 | 1.7 | 0.00 | 3.77 | 3.61 | 97 | 1013.2 |
| 20260510002506 | 66 | 309 | 0.0 | 2.6 | 0.00 | 3.77 | 3.61 | 97 | 1013.0 |
| 20260510002010 | 66 | 328 | 0.9 | 2.6 | 0.01 | 3.77 | 3.61 | 97 | 1012.9 |
| 20260510001517 | 66 | 211 | 0.9 | 2.6 | 0.01 | 3.77 | 3.61 | 97 | 1012.7 |
| 20260510001007 | 66 | 290 | 0.0 | 1.7 | 0.02 | 3.77 | 3.61 | 97 | 1012.5 |
| 20260510000510 | 66 | 290 | 0.0 | 2.6 | 0.03 | 3.77 | 3.61 | 97 | 1012.5 |
| 20260510000023 | 66 | 336 | 0.9 | 2.6 | 0.04 | 3.77 | 3.61 | 97 | 1012.5 |
| 20260509235508 | 66 | 48 | 0.9 | 2.6 | 0.04 | 3.77 | 3.61 | 97 | 1012.4 |
| 20260509235012 | 66 | 88 | 0.0 | 2.6 | 0.05 | 3.77 | 3.61 | 97 | 1012.1 |
| 20260509234527 | 66 | 161 | 0.0 | 3.5 | 0.05 | 3.77 | 3.61 | 97 | 1011.9 |
| 20260509234009 | 66 | 207 | 0.9 | 3.5 | 0.06 | 3.77 | 3.61 | 97 | 1011.8 |
| 20260509233511 | 66 | 202 | 0.0 | 7.0 | 0.08 | 3.77 | 3.61 | 97 | 1011.7 |
| 20260509233028 | 66 | 195 | 0.9 | 7.0 | 0.10 | 3.77 | 3.61 | 97 | 1011.4 |
| 20260509232515 | 66 | 176 | 2.6 | 7.0 | 0.11 | 3.77 | 3.61 | 97 | 1011.0 |
| 20260509232010 | 66 | 132 | 2.6 | 7.0 | 0.11 | 3.77 | 3.60 | 97 | 1011.1 |
| 20260509231512 | 66 | 155 | 1.7 | 5.2 | 0.13 | 3.78 | 3.60 | 97 | 1011.2 |
| 20260509231007 | 66 | 123 | 0.9 | 4.3 | 0.13 | 3.78 | 3.59 | 97 | 1011.6 |
| 20260509230508 | 66 | 184 | 0.9 | 4.3 | 0.13 | 3.78 | 3.58 | 97 | 1011.6 |
| 20260509230020 | 66 | 190 | 0.9 | 5.2 | 0.13 | 3.79 | 3.57 | 97 | 1011.7 |
| 20260509225508 | 66 | 197 | 1.7 | 5.2 | 0.14 | 3.83 | 3.57 | 97 | 1012.1 |
| 20260509225011 | 66 | 235 | 0.9 | 5.2 | 0.14 | 3.87 | 3.56 | 97 | 1012.2 |
| 20260509224531 | 66 | 232 | 2.6 | 4.3 | 0.15 | 3.88 | 3.56 | 97 | 1012.2 |
| 20260509224008 | 66 | 203 | 1.7 | 4.3 | 0.15 | 3.88 | 3.55 | 97 | 1012.1 |
| 20260509223512 | 66 | 154 | 0.0 | 3.5 | 0.16 | 3.87 | 3.53 | 97 | 1011.8 |
| 20260509223027 | 66 | 78 | 1.7 | 3.5 | 0.16 | 3.85 | 3.51 | 97 | 1011.9 |
| 20260509222508 | 66 | 136 | 0.9 | 2.6 | 0.16 | 3.84 | 3.50 | 97 | 1012.4 |
| 20260509222013 | 66 | 207 | 0.0 | 3.5 | 0.16 | 3.83 | 3.49 | 97 | 1012.5 |
| 20260509221530 | 66 | 240 | 0.9 | 3.5 | 0.16 | 3.81 | 3.47 | 97 | 1012.7 |
| 20260509221018 | 66 | 218 | 0.9 | 3.5 | 0.16 | 3.80 | 3.46 | 97 | 1012.7 |
| 20260509220517 | 66 | 218 | 0.9 | 2.6 | 0.17 | 3.79 | 3.45 | 97 | 1012.7 |
| 20260509220017 | 66 | 17 | 0.9 | 1.7 | 0.16 | 3.78 | 3.44 | 97 | 1012.5 |
| 20260509215507 | 66 | 17 | 0.0 | 2.6 | 0.17 | 3.77 | 3.43 | 97 | 1012.3 |
| 20260509215012 | 66 | 46 | 0.0 | 2.6 | 0.17 | 3.77 | 3.42 | 97 | 1012.1 |
| 20260509214521 | 66 | 46 | 0.0 | 3.5 | 0.19 | 3.76 | 3.41 | 97 | 1012.2 |
| 20260509214009 | 66 | 46 | 0.9 | 3.5 | 0.19 | 3.76 | 3.40 | 97 | 1012.3 |
| 20260509213508 | 66 | 74 | 0.0 | 2.6 | 0.17 | 3.75 | 3.37 | 97 | 1012.3 |
| 20260509213026 | 66 | 74 | 0.9 | 2.6 | 0.15 | 3.75 | 3.35 | 97 | 1012.3 |
| 20260509212508 | 66 | 199 | 0.9 | 2.6 | 0.15 | 3.76 | 3.34 | 97 | 1012.2 |
| 20260509212011 | 66 | 199 | 0.9 | 6.1 | 0.14 | 3.77 | 3.33 | 96 | 1012.2 |
| 20260509211507 | 66 | 242 | 0.0 | 6.1 | 0.12 | 3.76 | 3.31 | 97 | 1012.3 |
| 20260509211006 | 66 | 236 | 1.7 | 4.3 | 0.11 | 3.77 | 3.30 | 96 | 1012.4 |
| 20260509210511 | 66 | 219 | 1.7 | 4.3 | 0.10 | 3.77 | 3.28 | 97 | 1012.2 |
| 20260509210014 | 66 | 200 | 0.9 | 3.5 | 0.10 | 3.79 | 3.28 | 97 | 1012.3 |
| 20260509205508 | 66 | 76 | 0.9 | 3.5 | 0.09 | 3.78 | 3.26 | 96 | 1012.5 |
| 20260509205007 | 66 | 195 | 0.0 | 2.6 | 0.10 | 3.77 | 3.25 | 97 | 1012.5 |
| 20260509204519 | 66 | 195 | 0.0 | 2.6 | 0.10 | 3.74 | 3.22 | 97 | 1012.9 |
| 20260509204009 | 66 | 195 | 0.0 | 2.6 | 0.10 | 3.74 | 3.21 | 96 | 1012.9 |
| 20260509203508 | 66 | 195 | 0.9 | 3.5 | 0.12 | 3.74 | 3.20 | 97 | 1012.6 |
| 20260509203029 | 66 | 223 | 1.7 | 3.5 | 0.13 | 3.75 | 3.20 | 97 | 1012.7 |
| 20260509202510 | 66 | 255 | 0.0 | 1.7 | 0.17 | 3.74 | 3.19 | 97 | 1012.6 |
| 20260509202018 | 66 | 63 | 0.9 | 3.5 | 0.20 | 3.75 | 3.19 | 97 | 1012.5 |
| 20260509201525 | 66 | 63 | 0.0 | 5.2 | 0.21 | 3.75 | 3.19 | 97 | 1012.5 |
| 20260509201011 | 66 | 131 | 0.9 | 5.2 | 0.23 | 3.76 | 3.19 | 97 | 1012.0 |
| 20260509200511 | 66 | 118 | 0.0 | 6.1 | 0.24 | 3.76 | 3.18 | 97 | 1011.8 |
| 20260509200012 | 66 | 77 | 2.6 | 6.1 | 0.25 | 3.77 | 3.18 | 97 | 1011.9 |
| 20260509195504 | 66 | 81 | 0.9 | 5.2 | 0.25 | 3.77 | 3.17 | 97 | 1012.0 |
| 20260509195008 | 66 | 88 | 2.6 | 5.2 | 0.24 | 3.76 | 3.15 | 97 | 1012.2 |
| 20260509194518 | 66 | 137 | 0.9 | 4.3 | 0.22 | 3.73 | 3.12 | 97 | 1012.6 |
| 20260509194008 | 66 | 180 | 1.7 | 5.2 | 0.22 | 3.72 | 3.11 | 96 | 1012.7 |
| 20260509193511 | 66 | 171 | 0.0 | 5.2 | 0.19 | 3.71 | 3.08 | 96 | 1013.1 |
| 20260509193025 | 66 | 99 | 0.9 | 5.2 | 0.19 | 3.72 | 3.07 | 96 | 1013.0 |
| 20260509192507 | 66 | 185 | 1.7 | 4.3 | 0.14 | 3.69 | 3.02 | 96 | 1012.7 |
| 20260509192012 | 66 | 215 | 0.9 | 6.1 | 0.11 | 3.71 | 2.99 | 96 | 1013.2 |
| 20260509191527 | 67 | 222 | 2.6 | 8.7 | 0.10 | 3.71 | 2.98 | 96 | 1013.1 |
| 20260509191011 | 67 | 217 | 3.5 | 8.7 | 0.08 | 3.70 | 2.96 | 97 | 1012.5 |
| 20260509190509 | 67 | 227 | 1.7 | 4.3 | 0.06 | 3.68 | 2.94 | 97 | 1013.9 |
| 20260509190028 | 67 | 270 | 1.7 | 6.1 | 0.06 | 3.67 | 2.93 | 97 | 1013.7 |
| 20260509185509 | 67 | 255 | 0.9 | 6.1 | 0.05 | 3.67 | 2.92 | 97 | 1012.9 |
| 20260509185018 | 67 | 126 | 2.6 | 4.3 | 0.04 | 3.69 | 2.91 | 97 | 1013.1 |
| 20260509184509 | 67 | 95 | 1.7 | 3.5 | 0.03 | 3.73 | 2.90 | 97 | 1013.3 |
| 20260509184002 | 67 | 175 | 0.9 | 3.5 | 0.02 | 3.80 | 2.89 | 97 | 1013.5 |
| 20260509183505 | 67 | 151 | 0.9 | 4.3 | 0.02 | 4.03 | 2.89 | 97 | 1013.2 |
| 20260509183003 | 67 | 190 | 0.9 | 4.3 | 0.01 | 4.46 | 2.88 | 97 | 1013.4 |
| 20260509182503 | 67 | 225 | 1.7 | 4.3 | 0.01 | 4.77 | 2.88 | 97 | 1013.6 |
| 20260509182005 | 67 | 211 | 1.7 | 5.2 | 0.01 | 4.88 | 2.88 | 97 | 1013.5 |
| 20260509181505 | 67 | 252 | 1.7 | 5.2 | 0.01 | 4.92 | 2.88 | 97 | 1013.3 |
| 20260509181004 | 67 | 76 | 1.7 | 7.0 | 0.01 | 5.05 | 2.88 | 97 | 1013.1 |
| 20260509180504 | 67 | 113 | 0.9 | 7.0 | 0.01 | 5.27 | 2.88 | 97 | 1013.0 |
| 20260509180007 | 67 | 83 | 1.7 | 7.0 | 0.00 | 5.29 | 2.87 | 97 | 1013.0 |
| 20260509175504 | 67 | 92 | 1.7 | 4.3 | 0.00 | 5.31 | 2.87 | 97 | 1013.1 |
| 20260509175005 | 67 | 117 | 0.9 | 5.2 | 0.01 | 5.33 | 2.87 | 97 | 1012.9 |
| 20260509174502 | 67 | 132 | 2.6 | 5.2 | 0.01 | 5.37 | 2.87 | 97 | 1012.9 |
| 20260509174001 | 67 | 130 | 0.9 | 4.3 | 0.01 | 5.40 | 2.87 | 97 | 1013.0 |
| 20260509173502 | 67 | 135 | 1.7 | 4.3 | 0.01 | 5.65 | 2.87 | 97 | 1013.1 |
| 20260509173003 | 67 | 173 | 1.7 | 5.2 | 0.01 | 6.11 | 2.87 | 97 | 1013.1 |
| 20260509172505 | 67 | 111 | 0.9 | 5.2 | 0.01 | 6.61 | 2.87 | 97 | 1013.1 |
| 20260509172003 | 67 | 126 | 1.7 | 6.1 | 0.01 | 7.10 | 2.87 | 97 | 1013.0 |
| 20260509171504 | 67 | 115 | 1.7 | 6.1 | 0.01 | 7.42 | 2.87 | 97 | 1013.0 |
| 20260509171003 | 67 | 152 | 0.9 | 7.8 | 0.01 | 7.72 | 2.87 | 97 | 1013.0 |
| 20260509170505 | 67 | 117 | 1.7 | 7.8 | 0.01 | 8.00 | 2.87 | 97 | 1013.1 |
| 20260509170006 | 66 | 142 | 2.6 | 7.8 | 0.01 | 8.20 | 2.87 | 97 | 1013.1 |
| 20260509165504 | 66 | 155 | 0.9 | 3.5 | 0.01 | 8.22 | 2.87 | 97 | 1013.3 |
| 20260509165003 | 66 | 124 | 0.9 | 3.5 | 0.00 | 8.22 | 2.86 | 97 | 1013.2 |
| 20260509164509 | 66 | 228 | 1.7 | 4.3 | 0.00 | 8.22 | 2.86 | 97 | 1013.4 |
| 20260509164006 | 66 | 220 | 1.7 | 4.3 | 0.00 | 8.22 | 2.86 | 97 | 1013.4 |
| 20260509163506 | 66 | 223 | 0.0 | 2.6 | 0.00 | 8.22 | 2.86 | 97 | 1013.4 |
| 20260509163007 | 66 | 100 | 0.9 | 2.6 | 0.03 | 8.22 | 2.86 | 97 | 1013.3 |
| 20260509162503 | 66 | 127 | 0.0 | 3.5 | 0.03 | 8.22 | 2.86 | 97 | 1013.2 |
| 20260509162007 | 66 | 193 | 0.0 | 4.3 | 0.04 | 8.22 | 2.86 | 96 | 1013.3 |
| 20260509161504 | 66 | 109 | 1.7 | 4.3 | 0.04 | 8.22 | 2.86 | 96 | 1013.2 |
| 20260509161003 | 66 | 117 | 0.9 | 2.6 | 0.04 | 8.22 | 2.86 | 97 | 1013.1 |
| 20260509160503 | 65 | 128 | 0.0 | 2.6 | 0.04 | 8.22 | 2.86 | 97 | 1013.2 |
| 20260509160004 | 65 | 115 | 0.0 | 3.5 | 0.04 | 8.22 | 2.86 | 97 | 1013.1 |
| 20260509155502 | 65 | 209 | 0.9 | 3.5 | 0.05 | 8.22 | 2.86 | 97 | 1013.4 |
| 20260509155004 | 65 | 178 | 0.0 | 2.6 | 0.05 | 8.22 | 2.86 | 97 | 1013.4 |
| 20260509154513 | 65 | 170 | 0.9 | 3.5 | 0.05 | 8.22 | 2.86 | 96 | 1013.6 |
| 20260509154007 | 65 | 150 | 0.9 | 3.5 | 0.05 | 8.22 | 2.86 | 96 | 1013.5 |
| 20260509153505 | 65 | 165 | 0.9 | 3.5 | 0.05 | 8.22 | 2.86 | 96 | 1013.5 |
| 20260509153014 | 65 | 123 | 0.9 | 3.5 | 0.03 | 8.18 | 2.83 | 96 | 1013.4 |
| 20260509152507 | 65 | 67 | 1.7 | 6.1 | 0.03 | 8.18 | 2.83 | 96 | 1013.2 |
| 20260509152007 | 65 | 125 | 1.7 | 6.1 | 0.02 | 8.18 | 2.82 | 96 | 1013.3 |
| 20260509151504 | 65 | 61 | 1.7 | 6.1 | 0.03 | 8.18 | 2.82 | 96 | 1013.3 |
| 20260509151003 | 65 | 113 | 1.7 | 5.2 | 0.03 | 8.18 | 2.82 | 96 | 1013.1 |
| 20260509150503 | 65 | 247 | 0.0 | 5.2 | 0.03 | 8.18 | 2.82 | 96 | 1013.5 |
| 20260509150004 | 65 | 186 | 0.9 | 5.2 | 0.03 | 8.18 | 2.82 | 96 | 1013.5 |
| 20260509145505 | 65 | 132 | 0.9 | 2.6 | 0.04 | 8.17 | 2.81 | 96 | 1013.3 |
| 20260509145004 | 65 | 128 | 0.9 | 2.6 | 0.09 | 8.17 | 2.81 | 97 | 1013.0 |
| 20260509144505 | 65 | 106 | 0.0 | 2.6 | 0.13 | 8.17 | 2.81 | 96 | 1012.8 |
| 20260509144004 | 65 | 125 | 0.0 | 3.5 | 0.27 | 8.17 | 2.81 | 96 | 1012.7 |
| 20260509143504 | 65 | 108 | 0.9 | 6.1 | 0.33 | 8.17 | 2.81 | 96 | 1012.5 |
| 20260509143012 | 65 | 121 | 1.7 | 6.1 | 0.37 | 8.16 | 2.80 | 96 | 1012.6 |
| 20260509142511 | 65 | 188 | 0.9 | 6.1 | 0.47 | 8.16 | 2.80 | 96 | 1012.8 |
| 20260509142004 | 65 | 150 | 2.6 | 7.0 | 0.56 | 8.16 | 2.80 | 96 | 1012.6 |
| 20260509141516 | 65 | 74 | 2.6 | 7.0 | 0.58 | 8.14 | 2.79 | 96 | 1012.5 |
| 20260509141005 | 65 | 182 | 1.7 | 5.2 | 0.61 | 8.14 | 2.79 | 96 | 1013.0 |
| 20260509140509 | 65 | 246 | 0.9 | 4.3 | 0.62 | 8.14 | 2.79 | 96 | 1012.8 |
| 20260509140006 | 65 | 95 | 0.9 | 4.3 | 0.63 | 8.14 | 2.79 | 96 | 1012.4 |
| 20260509135505 | 65 | 104 | 0.9 | 4.3 | 0.67 | 8.13 | 2.77 | 96 | 1012.4 |
| 20260509135004 | 65 | 178 | 0.9 | 3.5 | 0.71 | 8.08 | 2.72 | 96 | 1013.0 |
| 20260509134505 | 65 | 144 | 1.7 | 3.5 | 0.82 | 8.04 | 2.68 | 96 | 1013.0 |
| 20260509134003 | 65 | 72 | 0.9 | 1.7 | 0.82 | 7.90 | 2.54 | 96 | 1012.9 |
| 20260509133505 | 65 | 277 | 0.0 | 1.7 | 0.84 | 7.84 | 2.48 | 96 | 1013.0 |
| 20260509133012 | 65 | 148 | 0.0 | 4.3 | 0.83 | 7.79 | 2.43 | 96 | 1013.1 |
| 20260509132508 | 65 | 142 | 0.9 | 5.2 | 0.81 | 7.69 | 2.33 | 96 | 1013.2 |
| 20260509132007 | 65 | 5 | 0.9 | 7.0 | 0.77 | 7.60 | 2.24 | 96 | 1013.1 |
| 20260509131512 | 64 | 79 | 0.9 | 8.7 | 0.87 | 7.56 | 2.20 | 96 | 1012.8 |
| 20260509131006 | 64 | 99 | 4.3 | 8.7 | 1.09 | 7.54 | 2.18 | 96 | 1012.6 |
| 20260509130507 | 64 | 96 | 2.6 | 8.7 | 1.17 | 7.53 | 2.17 | 96 | 1012.8 |
| 20260509130030 | 64 | 40 | 3.5 | 7.8 | 1.25 | 7.52 | 2.16 | 96 | 1012.7 |
| 20260509125505 | 65 | 93 | 1.7 | 7.0 | 1.29 | 7.46 | 2.09 | 96 | 1012.8 |
| 20260509125007 | 65 | 77 | 1.7 | 3.5 | 1.32 | 7.37 | 2.01 | 96 | 1012.6 |
| 20260509124504 | 64 | 141 | 0.0 | 2.6 | 1.16 | 7.22 | 1.86 | 96 | 1013.0 |
| 20260509124004 | 65 | 65 | 0.0 | 2.6 | 1.03 | 7.08 | 1.72 | 96 | 1013.1 |
| 20260509123504 | 65 | 35 | 0.0 | 3.5 | 0.95 | 7.00 | 1.64 | 96 | 1013.2 |
| 20260509123007 | 65 | 90 | 0.0 | 3.5 | 0.91 | 6.96 | 1.60 | 96 | 1013.0 |
| 20260509122503 | 65 | 76 | 1.7 | 6.1 | 0.83 | 6.88 | 1.52 | 96 | 1012.7 |
| 20260509122003 | 65 | 39 | 0.9 | 9.6 | 0.78 | 6.83 | 1.47 | 96 | 1013.2 |
| 20260509121510 | 65 | 32 | 4.3 | 9.6 | 0.64 | 6.69 | 1.33 | 96 | 1013.1 |
| 20260509121003 | 65 | 90 | 0.9 | 13.9 | 0.40 | 6.45 | 1.09 | 96 | 1013.5 |
| 20260509120507 | 65 | 325 | 3.5 | 13.9 | 0.30 | 6.35 | 0.99 | 96 | 1013.6 |
| 20260509120025 | 66 | 75 | 5.2 | 13.0 | 0.22 | 6.27 | 0.91 | 95 | 1013.7 |
| 20260509115508 | 66 | 258 | 2.6 | 14.8 | 0.12 | 6.17 | 0.81 | 95 | 1013.7 |
| 20260509115007 | 67 | 122 | 5.2 | 14.8 | 0.00 | 6.05 | 0.69 | 95 | 1013.1 |
| 20260509114522 | 69 | 352 | 4.3 | 13.9 | 0.00 | 6.05 | 0.69 | 96 | 1012.8 |
| 20260509114008 | 69 | 5 | 1.7 | 3.5 | 0.00 | 6.05 | 0.69 | 96 | 1012.4 |
| 20260509113511 | 69 | 320 | 0.9 | 2.6 | 0.00 | 6.05 | 0.69 | 96 | 1011.4 |
| 20260509113007 | 69 | 320 | 0.9 | 2.6 | 0.00 | 6.05 | 0.69 | 96 | 1011.2 |
| 20260509112504 | 69 | 320 | 0.9 | 2.6 | 0.00 | 6.05 | 0.69 | 96 | 1011.0 |
| 20260509112004 | 69 | 198 | 0.0 | 3.5 | 0.00 | 6.05 | 0.69 | 96 | 1010.8 |
| 20260509111506 | 69 | 198 | 0.9 | 3.5 | 0.00 | 6.06 | 0.69 | 97 | 1010.5 |
| 20260509111004 | 69 | 182 | 0.9 | 4.3 | 0.00 | 6.06 | 0.69 | 97 | 1010.4 |
| 20260509110504 | 69 | 217 | 1.7 | 4.3 | 0.00 | 6.06 | 0.69 | 97 | 1010.1 |
| 20260509110018 | 69 | 185 | 0.0 | 4.3 | 0.00 | 6.06 | 0.69 | 97 | 1009.8 |
| 20260509105508 | 69 | 192 | 1.7 | 4.3 | 0.00 | 6.06 | 0.69 | 97 | 1009.9 |
| 20260509105006 | 69 | 198 | 0.0 | 2.6 | 0.00 | 6.06 | 0.69 | 96 | 1009.9 |